COSMOS 2392 DEB, 27494

Orbit data source: Space-Track

COSMOS 2392 DEB, 27494 is space debris in LEO originally from a launch on Thu, 25 Jul 2002 UTC launched from the Tyuratam Missile And Space Complex (TTMTR). Debris objects in space refer to the collection of defunct objects orbiting the Earth. Examples of debris include non-operational satellites, rocket bodies, and fragments generated from explosions, collisions, or faulty payload assembly.

Loading next visibility...
Identifier
27494, 2002-037H
Orbit
LEO
Country
Flag of CISCIS
Related business
Manufacturer
Unknown
Mission
Spacecraft
Bus & Motor
Unknown
Mass
Unknown
Launch date (UTC)
2002-07-25 (24 years ago)
Launch vehicle
Unknown
Launch site
Tyuratam Missile And Space Complex (TTMTR)
Object type
Payload
Rocket body
Debris
Shape & HBR
Unknown shape, 0.8 m
Radar Cross Section
Large (>1 m²)

Expand to show TLE details & history
Last TLE update: 2 days ago

TLE from 2 days ago
0 COSMOS 2392 DEB
1 27494U 02037H   26171.39146053 -.00000277  00000-0 -14210-2 0  9994
2 27494  63.4398 311.6307 0568891 331.8862  52.4884 12.10877499 54323
Epoch: 2026-06-20T09:23Z
TLE epoch observation values (Epoch: 2026-06-20T09:23:42.189Z)
Latitude
26.4212°
Longitude
-83.59351°
Altitude
1,374.204 km
Speed
7.29 km/s
True Right ascension
21h 43m 45s
True Declination
26° 17' 43"
Sunlit
Object was in daylight at epoch
Visualization orbit readout
Latitude
Unknown
Longitude
Unknown
Altitude
Unknown
Speed
Unknown
Apparent Right ascension
Unknown
Apparent Declination
Unknown
Sunlit
N/A
Visualization observer readout
Local Sidereal Time
02:00:08
Azimuth
Unknown
Elevation
Unknown
Doppler factor
Unknown
Orbital elements
Apogee altitude
2,087.081 km
Perigee altitude
1,175.767 km
Semi-major axis
8,009.561 km
Eccentricity
0.05689
Inclination
63.4398°
RAAN
311.6307°
Arg. of periapsis
331.8862°
True anomaly
57.88504°
Mean anomaly
52.4884°
Eccentric anomaly
55.16376°
Mean motion
3.02782 °/min
Orbital period
118.9 mins
BSTAR
-0.001421
Loading maneuver chart data...
Computing Atmospheric mass density...

Documentation

Showing up to 5 results
|